Lister — ZDHW6 — position and weather

sailwx.info

Track history (hours):
 
Tides and Currents Weather Stations Pressure Air Temp Water Temp Dewpoint Dewpoint Depression Visibility Wind Speed Wind Dir Waves Ship Positions

Lister

Last reported at 2014-Jul-31 01:13 UTC. Time now 2014-Jul-31 15:32 UTC.
Position N 60°07' E 027°31'.

Length 89 m; draft 3.9 m.

Type: Ship. MMSI: 236381000.

Date/timePositionNaut miles runAvg speedWind from/ knotsBaromVisibWave heightAir tempDewpointWater temp
2014-Jul-31 01:13N 60°07' E 027°31'2010.6
2014-Jul-30 23:19N 59°58' E 026°55'811.0
2014-Jul-30 22:33N 59°59' E 026°38'1111.2
2014-Jul-30 21:33N 59°57' E 026°16'1111.2
2014-Jul-30 20:33N 59°54' E 025°55'7811.1
2014-Jul-30 13:33N 59°33' E 023°26'10011.1
2014-Jul-30 04:33N 59°03' E 020°20'9211.1
2014-Jul-29 20:18N 58°38' E 017°29'1011.0
2014-Jul-29 19:25N 58°37' E 017°11'911.0
2014-Jul-29 18:33N 58°36' E 016°53'1010.1
2014-Jul-29 17:33N 58°38' E 016°34'10 9.9
2014-Jul-29 16:33N 58°37' E 016°15'  
2014-Jul-26 18:18N 58°37' E 016°15'7 8.8
2014-Jul-26 17:33N 58°39' E 016°27'1010.1
2014-Jul-26 16:33N 58°37' E 016°46'1010.1
2014-Jul-26 15:33N 58°37' E 017°05'10 9.9
2014-Jul-26 14:34N 58°37' E 017°24'10 9.5
2014-Jul-26 13:32N 58°29' E 017°32'1010.1
2014-Jul-26 12:33N 58°19' E 017°37'1010.1
2014-Jul-26 11:33N 58°09' E 017°41'1410.2
2014-Jul-26 10:12N 57°56' E 017°48'1010.0
2014-Jul-26 09:12N 57°46' E 017°53'1710.1
2014-Jul-26 07:33N 57°30' E 018°01'9 8.6
2014-Jul-26 06:33N 57°23' E 018°09'1 1.3
2014-Jul-26 05:32N 57°23' E 018°11'0 0.0
2014-Jul-26 04:32N 57°23' E 018°11'0 0.0
2014-Jul-26 03:32N 57°23' E 018°11'0 0.0
2014-Jul-26 02:32N 57°23' E 018°11'0 0.0
2014-Jul-26 01:32N 57°23' E 018°11'0 0.0
2014-Jul-26 00:32N 57°23' E 018°11'0 0.0
2014-Jul-25 23:29N 57°23' E 018°11'0 0.0
2014-Jul-25 22:32N 57°23' E 018°11'0 0.0
2014-Jul-25 21:26N 57°23' E 018°11'0 0.0
2014-Jul-25 19:32N 57°23' E 018°11'0 0.0
2014-Jul-25 18:32N 57°23' E 018°11'0 0.0
2014-Jul-25 17:29N 57°23' E 018°11'0 0.0
2014-Jul-25 16:32N 57°23' E 018°11'0 0.0
2014-Jul-25 15:32N 57°23' E 018°11'0 0.0
2014-Jul-25 14:29N 57°23' E 018°11'0 0.0
2014-Jul-25 13:32N 57°23' E 018°11'0 0.0
2014-Jul-25 12:32N 57°23' E 018°11'0 0.0
2014-Jul-25 11:32N 57°23' E 018°11'0 0.0
2014-Jul-25 10:32N 57°23' E 018°11'0 0.0
2014-Jul-25 09:32N 57°23' E 018°11'0 0.0
2014-Jul-25 08:32N 57°23' E 018°11'0 0.0
2014-Jul-25 07:32N 57°23' E 018°11'0 0.0
2014-Jul-25 06:32N 57°23' E 018°11'0 0.0
2014-Jul-25 05:32N 57°23' E 018°11'0 0.0
2014-Jul-25 04:32N 57°23' E 018°11'0 0.0
2014-Jul-25 03:32N 57°23' E 018°11'0 0.0
2014-Jul-25 02:32N 57°23' E 018°11'0 0.0
2014-Jul-25 01:32N 57°23' E 018°11'0 0.0
2014-Jul-25 00:32N 57°23' E 018°11'0 0.0
2014-Jul-24 23:32N 57°23' E 018°11'0 0.0
2014-Jul-24 22:32N 57°23' E 018°11'0 0.0
2014-Jul-24 21:32N 57°23' E 018°11'0 0.0
2014-Jul-24 19:15N 57°23' E 018°11'10 5.8
2014-Jul-24 17:33N 57°18' E 017°56'1212.3
2014-Jul-24 16:33N 57°07' E 017°46'1212.3
2014-Jul-24 15:34N 56°56' E 017°36'1212.1
2014-Jul-24 14:33N 56°45' E 017°26'1212.1
2014-Jul-24 13:34N 56°35' E 017°16'1212.1
2014-Jul-24 12:34N 56°24' E 017°06'1212.1
2014-Jul-24 11:34N 56°13' E 016°55'1211.7
2014-Jul-24 10:33N 56°04' E 016°43'1111.5
2014-Jul-24 09:34N 56°01' E 016°23'1211.7
2014-Jul-24 08:33N 55°60' E 016°02'1211.7
2014-Jul-24 07:34N 56°00' E 015°42'1211.7
2014-Jul-24 06:34N 56°03' E 015°21'1211.6
2014-Jul-24 05:33N 56°06' E 015°01'6 0.3
2014-Jul-23 10:06N 56°02' E 014°53'1011.7
2014-Jul-23 09:15N 55°53' E 014°50'811.7
2014-Jul-23 08:33N 55°45' E 014°46'1211.4
2014-Jul-23 07:30N 55°33' E 014°42'1511.1
2014-Jul-23 06:08N 55°19' E 014°32'611.0
2014-Jul-23 05:33N 55°14' E 014°26'1010.0
2014-Jul-23 04:33N 55°11' E 014°09'1110.9
2014-Jul-23 03:33N 55°11' E 013°50'2211.1
2014-Jul-23 01:33N 55°14' E 013°11'1111.1
2014-Jul-23 00:33N 55°15' E 012°52'10 9.5
2014-Jul-22 23:34N 55°21' E 012°39'1111.1
2014-Jul-22 22:33N 55°32' E 012°45'9 9.2
2014-Jul-22 21:33N 55°38' E 012°57'2 2.3
2014-Jul-22 20:33N 55°37' E 013°00'0 0.0
2014-Jul-22 19:33N 55°37' E 013°00'0 0.0
2014-Jul-22 18:33N 55°37' E 013°00'0 0.0
2014-Jul-22 17:33N 55°37' E 013°00'0 0.0
2014-Jul-22 16:33N 55°37' E 013°00'0 0.0
2014-Jul-22 15:33N 55°37' E 013°00'0 0.0
2014-Jul-22 14:33N 55°37' E 013°00'0 0.0
2014-Jul-22 13:33N 55°37' E 013°00'0 0.0
2014-Jul-22 12:33N 55°37' E 013°00'0 0.0
2014-Jul-22 11:33N 55°37' E 013°00'0 0.0
2014-Jul-22 10:33N 55°37' E 013°00'0 0.0
2014-Jul-22 09:33N 55°37' E 013°00'0 0.0
2014-Jul-22 08:33N 55°37' E 013°00'0 0.0
2014-Jul-22 07:33N 55°37' E 013°00'0 0.0
2014-Jul-22 06:33N 55°37' E 013°00'0 0.0
2014-Jul-22 05:33N 55°37' E 013°00'0 0.0
2014-Jul-22 04:33N 55°37' E 013°00'0 0.0
2014-Jul-22 03:33N 55°37' E 013°00'0 0.1
2014-Jul-22 02:33N 55°37' E 013°00'0 0.0
2014-Jul-22 01:33N 55°37' E 013°00'0 0.0
2014-Jul-22 00:33N 55°37' E 013°00'0 0.0
2014-Jul-21 23:33N 55°37' E 013°00'0 0.0
2014-Jul-21 22:33N 55°37' E 013°00'0 0.0
2014-Jul-21 21:33N 55°37' E 013°00'0 0.0
2014-Jul-21 20:33N 55°37' E 013°00'0 0.0
2014-Jul-21 20:15N 55°37' E 013°00'0 0.0
2014-Jul-21 19:33N 55°37' E 013°00'0 0.3
2014-Jul-21 18:33N 55°37' E 012°60'0 0.3
2014-Jul-21 17:31N 55°37' E 013°00'0 0.0
2014-Jul-21 16:31N 55°37' E 013°00'0 0.0
2014-Jul-21 15:31N 55°37' E 013°00'0 0.0
2014-Jul-21 14:31N 55°37' E 013°00'0 0.0
2014-Jul-21 13:31N 55°37' E 013°00'0 0.0
2014-Jul-21 12:31N 55°37' E 013°00'0 0.0
2014-Jul-21 11:31N 55°37' E 013°00'0 0.0
2014-Jul-21 10:28N 55°37' E 013°00'0 0.0
2014-Jul-21 09:31N 55°37' E 013°00'0 0.1
2014-Jul-21 08:29N 55°37' E 013°00'0 0.0
2014-Jul-21 07:32N 55°37' E 013°00'0 0.0
2014-Jul-21 06:32N 55°37' E 013°00'0 0.0
2014-Jul-21 05:32N 55°37' E 013°00'0 0.0
2014-Jul-21 04:32N 55°37' E 013°00'0 0.0
2014-Jul-21 03:32N 55°37' E 013°00'0 0.0
2014-Jul-21 02:29N 55°37' E 013°00'0 0.0
2014-Jul-21 01:32N 55°37' E 013°00'  
Track history (hours):
 
Tides and Currents Weather Stations Pressure Air Temp Water Temp Dewpoint Dewpoint Depression Visibility Wind Speed Wind Dir Waves Ship Positions

Lister

Last reported at 2014-Jul-31 01:13 UTC. Time now 2014-Jul-31 15:32 UTC.
Position N 60°07' E 027°31'.

Length 89 m; draft 3.9 m.

Type: Ship. MMSI: 236381000.

Date/timePositionNaut miles runAvg speedWind from/ knotsBaromVisibWave heightAir tempDewpointWater temp
2014-Jul-31 01:13N 60°07' E 027°31'2010.6
2014-Jul-30 23:19N 59°58' E 026°55'811.0
2014-Jul-30 22:33N 59°59' E 026°38'1111.2
2014-Jul-30 21:33N 59°57' E 026°16'1111.2
2014-Jul-30 20:33N 59°54' E 025°55'7811.1
2014-Jul-30 13:33N 59°33' E 023°26'10011.1
2014-Jul-30 04:33N 59°03' E 020°20'9211.1
2014-Jul-29 20:18N 58°38' E 017°29'1011.0
2014-Jul-29 19:25N 58°37' E 017°11'911.0
2014-Jul-29 18:33N 58°36' E 016°53'1010.1
2014-Jul-29 17:33N 58°38' E 016°34'10 9.9
2014-Jul-29 16:33N 58°37' E 016°15'  
2014-Jul-26 18:18N 58°37' E 016°15'7 8.8
2014-Jul-26 17:33N 58°39' E 016°27'1010.1
2014-Jul-26 16:33N 58°37' E 016°46'1010.1
2014-Jul-26 15:33N 58°37' E 017°05'10 9.9
2014-Jul-26 14:34N 58°37' E 017°24'10 9.5
2014-Jul-26 13:32N 58°29' E 017°32'1010.1
2014-Jul-26 12:33N 58°19' E 017°37'1010.1
2014-Jul-26 11:33N 58°09' E 017°41'1410.2
2014-Jul-26 10:12N 57°56' E 017°48'1010.0
2014-Jul-26 09:12N 57°46' E 017°53'1710.1
2014-Jul-26 07:33N 57°30' E 018°01'9 8.6
2014-Jul-26 06:33N 57°23' E 018°09'1 1.3
2014-Jul-26 05:32N 57°23' E 018°11'0 0.0
2014-Jul-26 04:32N 57°23' E 018°11'0 0.0
2014-Jul-26 03:32N 57°23' E 018°11'0 0.0
2014-Jul-26 02:32N 57°23' E 018°11'0 0.0
2014-Jul-26 01:32N 57°23' E 018°11'0 0.0
2014-Jul-26 00:32N 57°23' E 018°11'0 0.0
2014-Jul-25 23:29N 57°23' E 018°11'0 0.0
2014-Jul-25 22:32N 57°23' E 018°11'0 0.0
2014-Jul-25 21:26N 57°23' E 018°11'0 0.0
2014-Jul-25 19:32N 57°23' E 018°11'0 0.0
2014-Jul-25 18:32N 57°23' E 018°11'0 0.0
2014-Jul-25 17:29N 57°23' E 018°11'0 0.0
2014-Jul-25 16:32N 57°23' E 018°11'0 0.0
2014-Jul-25 15:32N 57°23' E 018°11'0 0.0
2014-Jul-25 14:29N 57°23' E 018°11'0 0.0
2014-Jul-25 13:32N 57°23' E 018°11'0 0.0
2014-Jul-25 12:32N 57°23' E 018°11'0 0.0
2014-Jul-25 11:32N 57°23' E 018°11'0 0.0
2014-Jul-25 10:32N 57°23' E 018°11'0 0.0
2014-Jul-25 09:32N 57°23' E 018°11'0 0.0
2014-Jul-25 08:32N 57°23' E 018°11'0 0.0
2014-Jul-25 07:32N 57°23' E 018°11'0 0.0
2014-Jul-25 06:32N 57°23' E 018°11'0 0.0
2014-Jul-25 05:32N 57°23' E 018°11'0 0.0
2014-Jul-25 04:32N 57°23' E 018°11'0 0.0
2014-Jul-25 03:32N 57°23' E 018°11'0 0.0
2014-Jul-25 02:32N 57°23' E 018°11'0 0.0
2014-Jul-25 01:32N 57°23' E 018°11'0 0.0
2014-Jul-25 00:32N 57°23' E 018°11'0 0.0
2014-Jul-24 23:32N 57°23' E 018°11'0 0.0
2014-Jul-24 22:32N 57°23' E 018°11'0 0.0
2014-Jul-24 21:32N 57°23' E 018°11'0 0.0
2014-Jul-24 19:15N 57°23' E 018°11'10 5.8
2014-Jul-24 17:33N 57°18' E 017°56'1212.3
2014-Jul-24 16:33N 57°07' E 017°46'1212.3
2014-Jul-24 15:34N 56°56' E 017°36'1212.1
2014-Jul-24 14:33N 56°45' E 017°26'1212.1
2014-Jul-24 13:34N 56°35' E 017°16'1212.1
2014-Jul-24 12:34N 56°24' E 017°06'1212.1
2014-Jul-24 11:34N 56°13' E 016°55'1211.7
2014-Jul-24 10:33N 56°04' E 016°43'1111.5
2014-Jul-24 09:34N 56°01' E 016°23'1211.7
2014-Jul-24 08:33N 55°60' E 016°02'1211.7
2014-Jul-24 07:34N 56°00' E 015°42'1211.7
2014-Jul-24 06:34N 56°03' E 015°21'1211.6
2014-Jul-24 05:33N 56°06' E 015°01'6 0.3
2014-Jul-23 10:06N 56°02' E 014°53'1011.7
2014-Jul-23 09:15N 55°53' E 014°50'811.7
2014-Jul-23 08:33N 55°45' E 014°46'1211.4
2014-Jul-23 07:30N 55°33' E 014°42'1511.1
2014-Jul-23 06:08N 55°19' E 014°32'611.0
2014-Jul-23 05:33N 55°14' E 014°26'1010.0
2014-Jul-23 04:33N 55°11' E 014°09'1110.9
2014-Jul-23 03:33N 55°11' E 013°50'2211.1
2014-Jul-23 01:33N 55°14' E 013°11'1111.1
2014-Jul-23 00:33N 55°15' E 012°52'10 9.5
2014-Jul-22 23:34N 55°21' E 012°39'1111.1
2014-Jul-22 22:33N 55°32' E 012°45'9 9.2
2014-Jul-22 21:33N 55°38' E 012°57'2 2.3
2014-Jul-22 20:33N 55°37' E 013°00'0 0.0
2014-Jul-22 19:33N 55°37' E 013°00'0 0.0
2014-Jul-22 18:33N 55°37' E 013°00'0 0.0
2014-Jul-22 17:33N 55°37' E 013°00'0 0.0
2014-Jul-22 16:33N 55°37' E 013°00'0 0.0
2014-Jul-22 15:33N 55°37' E 013°00'0 0.0
2014-Jul-22 14:33N 55°37' E 013°00'0 0.0
2014-Jul-22 13:33N 55°37' E 013°00'0 0.0
2014-Jul-22 12:33N 55°37' E 013°00'0 0.0
2014-Jul-22 11:33N 55°37' E 013°00'0 0.0
2014-Jul-22 10:33N 55°37' E 013°00'0 0.0
2014-Jul-22 09:33N 55°37' E 013°00'0 0.0
2014-Jul-22 08:33N 55°37' E 013°00'0 0.0
2014-Jul-22 07:33N 55°37' E 013°00'0 0.0
2014-Jul-22 06:33N 55°37' E 013°00'0 0.0
2014-Jul-22 05:33N 55°37' E 013°00'0 0.0
2014-Jul-22 04:33N 55°37' E 013°00'0 0.0
2014-Jul-22 03:33N 55°37' E 013°00'0 0.1
2014-Jul-22 02:33N 55°37' E 013°00'0 0.0
2014-Jul-22 01:33N 55°37' E 013°00'0 0.0
2014-Jul-22 00:33N 55°37' E 013°00'0 0.0
2014-Jul-21 23:33N 55°37' E 013°00'0 0.0
2014-Jul-21 22:33N 55°37' E 013°00'0 0.0
2014-Jul-21 21:33N 55°37' E 013°00'0 0.0
2014-Jul-21 20:33N 55°37' E 013°00'0 0.0
2014-Jul-21 20:15N 55°37' E 013°00'0 0.0
2014-Jul-21 19:33N 55°37' E 013°00'0 0.3
2014-Jul-21 18:33N 55°37' E 012°60'0 0.3
2014-Jul-21 17:31N 55°37' E 013°00'0 0.0
2014-Jul-21 16:31N 55°37' E 013°00'0 0.0
2014-Jul-21 15:31N 55°37' E 013°00'0 0.0
2014-Jul-21 14:31N 55°37' E 013°00'0 0.0
2014-Jul-21 13:31N 55°37' E 013°00'0 0.0
2014-Jul-21 12:31N 55°37' E 013°00'0 0.0
2014-Jul-21 11:31N 55°37' E 013°00'0 0.0
2014-Jul-21 10:28N 55°37' E 013°00'0 0.0
2014-Jul-21 09:31N 55°37' E 013°00'0 0.1
2014-Jul-21 08:29N 55°37' E 013°00'0 0.0
2014-Jul-21 07:32N 55°37' E 013°00'0 0.0
2014-Jul-21 06:32N 55°37' E 013°00'0 0.0
2014-Jul-21 05:32N 55°37' E 013°00'0 0.0
2014-Jul-21 04:32N 55°37' E 013°00'0 0.0
2014-Jul-21 03:32N 55°37' E 013°00'0 0.0
2014-Jul-21 02:29N 55°37' E 013°00'0 0.0
2014-Jul-21 01:32N 55°37' E 013°00'  

Dump ship's entire track history